TimeEST,TemperatureF,Dew PointF,Humidity,Sea Level PressureIn,VisibilityMPH,Wind Direction,Wind SpeedMPH,Gust SpeedMPH,PrecipitationIn,Events,Conditions,WindDirDegrees,DateUTC
12:15 AM,36.5,35.8,97,30.23,2.5,Calm,Calm,-,0.01,,Drizzle,0,2014-02-11 05:15:00
12:35 AM,36.5,35.8,97,30.23,2.0,Calm,Calm,-,0.01,Rain,Heavy Rain,0,2014-02-11 05:35:00
12:55 AM,36.5,36.0,98,30.22,1.8,Calm,Calm,-,0.03,Rain,Heavy Rain,0,2014-02-11 05:55:00
1:15 AM,36.5,36.0,98,30.22,2.0,NNE,3.5,-,0.02,Rain,Heavy Rain,30,2014-02-11 06:15:00
1:35 AM,36.5,36.0,98,30.22,2.0,Calm,Calm,-,0.03,,Heavy Drizzle,0,2014-02-11 06:35:00
1:55 AM,36.5,36.0,98,30.22,2.0,NNE,5.8,-,0.04,Rain,Heavy Rain,20,2014-02-11 06:55:00
2:15 AM,36.1,36.0,99,30.21,2.5,Calm,Calm,-,N/A,Rain,Light Rain,0,2014-02-11 07:15:00
2:35 AM,35.6,35.2,99,30.21,2.5,NNE,3.5,-,0.01,Rain,Heavy Rain,20,2014-02-11 07:35:00
2:55 AM,34.9,34.7,99,30.21,3.0,NE,3.5,-,0.03,Rain,Rain,50,2014-02-11 07:55:00
3:15 AM,34.7,34.2,98,30.22,3.0,NE,4.6,-,0.01,Rain,Heavy Rain,40,2014-02-11 08:15:00
3:35 AM,34.7,34.2,98,30.22,3.0,Calm,Calm,-,0.02,,Heavy Drizzle,0,2014-02-11 08:35:00
3:55 AM,34.7,34.2,98,30.22,3.0,Calm,Calm,-,0.03,,Drizzle,0,2014-02-11 08:55:00
4:15 AM,34.3,34.0,99,30.22,3.0,Calm,Calm,-,N/A,,Heavy Drizzle,0,2014-02-11 09:15:00
4:35 AM,33.4,33.1,99,30.23,4.0,ENE,3.5,-,N/A,,Drizzle,60,2014-02-11 09:35:00
4:55 AM,33.3,32.7,98,30.23,4.0,ENE,3.5,-,0.01,,Drizzle,60,2014-02-11 09:55:00
5:15 AM,33.3,32.9,99,30.24,3.0,ENE,5.8,-,0.01,Rain,Light Rain,60,2014-02-11 10:15:00
5:35 AM,33.4,32.9,98,30.24,2.5,ENE,3.5,-,0.01,,Heavy Drizzle,70,2014-02-11 10:35:00
5:55 AM,33.1,32.9,99,30.24,3.0,ENE,5.8,-,0.02,,Drizzle,60,2014-02-11 10:55:00
6:15 AM,33.3,32.9,99,30.25,3.0,ENE,3.5,-,0.01,Rain,Rain,60,2014-02-11 11:15:00
6:35 AM,33.1,32.9,99,30.26,3.0,Calm,Calm,-,0.02,Rain,Light Rain,0,2014-02-11 11:35:00
6:55 AM,33.1,32.7,99,30.26,3.0,NE,5.8,-,0.02,Rain,Rain,50,2014-02-11 11:55:00
7:15 AM,32.5,32.0,98,30.27,5.0,NE,3.5,-,0.01,Rain,Light Rain,40,2014-02-11 12:15:00
7:35 AM,32.7,32.0,97,30.28,4.0,NE,3.5,-,0.03,Rain,Rain,50,2014-02-11 12:35:00
7:55 AM,32.4,32.0,99,30.28,3.0,NE,4.6,-,0.04,Rain,Rain,50,2014-02-11 12:55:00
8:15 AM,31.8,30.9,96,30.30,4.0,NNE,4.6,-,0.01,Rain,Freezing Rain,30,2014-02-11 13:15:00
8:35 AM,31.5,30.2,95,30.30,2.5,NE,4.6,-,0.02,Rain,Freezing Rain,40,2014-02-11 13:35:00
8:55 AM,31.1,29.8,95,30.32,1.5,ENE,4.6,-,0.03,Snow,Light Snow,60,2014-02-11 13:55:00
9:15 AM,30.9,30.0,96,30.32,0.8,NNE,3.5,-,0.01,Snow,Light Snow,30,2014-02-11 14:15:00
9:35 AM,31.1,30.2,96,30.31,2.5,NE,3.5,-,0.03,Rain,Freezing Rain,40,2014-02-11 14:35:00
9:55 AM,31.1,30.0,96,30.31,4.0,NE,4.6,-,0.04,Rain,Freezing Rain,40,2014-02-11 14:55:00
10:15 AM,31.1,30.0,96,30.31,4.0,NNE,6.9,-,0.01,Rain,Freezing Rain,30,2014-02-11 15:15:00
10:35 AM,30.9,29.5,94,30.31,3.0,NNE,4.6,-,0.01,Rain,Freezing Rain,30,2014-02-11 15:35:00
10:55 AM,30.7,29.3,94,30.32,2.5,NE,3.5,-,0.02,Snow,Light Snow,40,2014-02-11 15:55:00
11:15 AM,30.4,28.9,94,30.33,1.2,NNE,3.5,-,0.01,Snow,Light Snow,20,2014-02-11 16:15:00
11:35 AM,30.4,29.3,96,30.31,0.5,NE,4.6,-,0.02,Snow,Snow,50,2014-02-11 16:35:00
11:55 AM,30.2,29.3,96,30.31,1.0,NE,3.5,-,0.03,Snow,Light Snow,40,2014-02-11 16:55:00
12:15 PM,30.6,29.8,97,30.31,1.0,NNE,5.8,-,0.02,,Overcast,20,2014-02-11 17:15:00
12:35 PM,30.2,29.3,96,30.31,0.8,NE,6.9,-,0.04,Snow,Light Snow,40,2014-02-11 17:35:00
12:55 PM,30.2,29.3,96,30.30,0.8,NE,4.6,-,0.06,Snow,Light Snow,40,2014-02-11 17:55:00
1:15 PM,30.6,29.7,96,30.30,1.0,Calm,Calm,-,0.02,Snow,Light Snow,0,2014-02-11 18:15:00
1:35 PM,30.2,29.3,96,30.29,0.8,Calm,Calm,-,0.03,,Mostly Cloudy,0,2014-02-11 18:35:00
1:55 PM,29.8,28.6,95,30.30,1.0,NNE,4.6,-,0.05,Snow,Light Snow,30,2014-02-11 18:55:00
2:15 PM,29.3,28.2,96,30.30,1.2,North,4.6,-,0.02,Snow,Light Snow,10,2014-02-11 19:15:00
2:35 PM,29.7,28.4,95,30.30,0.8,NNE,4.6,-,0.03,Snow,Light Snow,20,2014-02-11 19:35:00
2:55 PM,29.3,28.4,96,30.31,0.8,NNE,5.8,-,0.04,Snow,Light Snow,20,2014-02-11 19:55:00
3:15 PM,29.3,28.6,97,30.31,0.5,Calm,Calm,-,0.02,Snow,Snow,0,2014-02-11 20:15:00
3:35 PM,29.1,28.2,96,30.31,0.8,NNE,5.8,-,0.03,Snow,Light Snow,30,2014-02-11 20:35:00
3:55 PM,28.9,27.7,95,30.31,0.8,NNE,4.6,-,0.04,Snow,Light Snow,20,2014-02-11 20:55:00
4:15 PM,28.9,28.0,96,30.31,0.8,NNE,4.6,-,0.01,Snow,Light Snow,30,2014-02-11 21:15:00
4:35 PM,28.8,27.9,96,30.31,1.0,Calm,Calm,-,0.02,Snow,Light Snow,0,2014-02-11 21:35:00
4:55 PM,28.4,27.5,96,30.31,1.8,NNE,3.5,-,0.04,,Overcast,30,2014-02-11 21:55:00
5:15 PM,28.2,27.0,95,30.31,1.0,North,3.5,-,N/A,Snow,Light Snow,10,2014-02-11 22:15:00
5:35 PM,28.0,27.0,96,30.32,3.0,NNE,3.5,-,N/A,Snow,Light Snow,30,2014-02-11 22:35:00
5:55 PM,28.0,26.6,94,30.32,5.0,NNE,4.6,-,0.01,Rain,Freezing Rain,30,2014-02-11 22:55:00
6:15 PM,27.9,26.6,95,30.32,4.0,NNE,3.5,-,N/A,Snow,Light Snow,20,2014-02-11 23:15:00
6:35 PM,27.9,26.4,94,30.32,4.0,NE,3.5,-,0.01,Snow,Light Snow,40,2014-02-11 23:35:00
6:55 PM,27.9,26.6,95,30.33,5.0,Calm,Calm,-,0.01,Rain,Freezing Rain,0,2014-02-11 23:55:00
7:15 PM,28.0,26.6,94,30.34,7.0,North,3.5,-,N/A,,Overcast,10,2014-02-12 00:15:00
7:35 PM,27.9,26.4,94,30.34,7.0,Calm,Calm,-,N/A,,Overcast,0,2014-02-12 00:35:00
7:55 PM,28.0,26.4,94,30.37,7.0,NNE,4.6,-,0.01,,Overcast,20,2014-02-12 00:55:00
8:15 PM,28.0,26.1,92,30.37,7.0,NNE,3.5,-,N/A,,Overcast,20,2014-02-12 01:15:00
8:35 PM,28.0,25.7,91,30.37,7.0,NE,3.5,-,N/A,,Overcast,40,2014-02-12 01:35:00
8:55 PM,28.0,25.7,91,30.37,7.0,Calm,Calm,-,N/A,,Overcast,0,2014-02-12 01:55:00
9:15 PM,28.0,25.5,90,30.37,7.0,NE,3.5,-,N/A,,Overcast,50,2014-02-12 02:15:00
9:35 PM,27.9,25.3,90,30.37,7.0,Calm,Calm,-,N/A,,Mostly Cloudy,0,2014-02-12 02:35:00
9:55 PM,27.9,25.7,92,30.38,7.0,Calm,Calm,-,N/A,,Overcast,0,2014-02-12 02:55:00
10:15 PM,28.0,25.9,92,30.38,7.0,Calm,Calm,-,N/A,,Overcast,0,2014-02-12 03:15:00
10:35 PM,28.0,25.9,92,30.38,5.0,Calm,Calm,-,N/A,,Overcast,0,2014-02-12 03:35:00
10:55 PM,28.0,26.2,93,30.38,5.0,Calm,Calm,-,N/A,,Overcast,0,2014-02-12 03:55:00
11:15 PM,28.0,26.1,92,30.37,5.0,NNE,3.5,-,N/A,,Overcast,30,2014-02-12 04:15:00
11:35 PM,28.0,26.1,92,30.37,7.0,NNE,3.5,-,N/A,,Overcast,30,2014-02-12 04:35:00
11:55 PM,28.2,25.9,91,30.37,7.0,NNE,3.5,-,N/A,,Overcast,30,2014-02-12 04:55:00